Weather in Vodovatovo

Russia / Nizhny Novgorod Oblast'     55°24′08″N   43°34′34″E
temp.,
°C
wind,
m/s
gust,
m/s
humid.,
%
clouds,
%
prec.,
mm/h
press.,
hPa
HPBL,
m
14 april, wed
wed1400:00+10sse3116787 0.0 1027163
03:00+8sse397160 0.0 1027131
06:00+8sse397540 0.0 1026149
09:00+14sse475294 0.0 1025351
12:00+18sse573420 0.0 10241072
15:00+19s58306 0.0 10221512
18:00+16sse34515 0.0 102167
21:00+12sse33665 0.0 102143
15 april, thu
thu1500:00+10sse33725 0.0 102030
03:00+8sse227578 0.0 102018
06:00+8sse22785 0.0 102029
09:00+13sse236211 0.0 1019319
12:00+17sse2346100 0.0 1018910
15:00+19sse223951 0.0 10181719
18:00+16e22518 0.0 101815
21:00+12ene346899 0.0 101951
16 april, fri
fri1600:00+9ne51088100 0.0 1020255
03:00+7ne51293100 0.0 1021368
06:00+6ne5128994 0.0 1023422
09:00+8ene697895 0.0 1023596
12:00+10ene6974100 0.0 1024788
15:00+10ene6973100 0.0 1024800
18:00+10ene5117599 0.0 1025782
21:00+8ene4108134 0.0 1026421
17 april, sat
sat1700:00+6ene5126920 0.0 1026335
03:00+4ne5127115 0.0 1027344
06:00+3ene5137017 0.0 1028397
09:00+8ene6105312 0.0 1028646
12:00+11ene79395 0.0 10281104
15:00+12ene68381 0.0 10271354
18:00+10ene59470 0.0 1028459
21:00+6ne310640 0.0 1028194
18 april, sun
sun1800:00+4ene310690 0.0 1029179
03:00+3ne36730 0.0 102995
06:00+3ne37770 0.0 1030146
09:00+9ene46570 0.0 1029622
12:00+12ene574453 0.0 10291423
15:00+12ene5744100 0.0 10281618
18:00+11ene3655100 0.0 1028211
21:00+9ene41164100 0.0 1029454